Location: Horizons Observatory
(43.6555°N, 72.5295°W)
Time: 11:23:53
(UTC-04:00)

ISS - Visible Passes

Search period start: 24 June 2021 00:00
Search period end: 04 July 2021 00:00
Orbit: 419 x 422 km, 51.6° (Epoch: 24 June)

Date Brightness Start Highest point End Pass type
(mag) Time Alt. Az. Time Alt. Az. Time Alt. Az.
25 Jun -1.2 04:25:46 10° SSE 04:27:40 14° SE 04:29:34 10° E visible
27 Jun -2.8 04:28:02 10° SSW 04:31:13 39° SE 04:34:25 10° ENE visible
28 Jun -2.2 03:43:30 16° S 03:45:21 25° SE 03:48:11 10° E visible
29 Jun -1.7 02:59:32 16° SE 02:59:50 16° SE 03:02:02 10° E visible
29 Jun -3.6 04:33:01 10° WSW 04:36:25 73° NNW 04:39:50 10° NE visible
30 Jun -3.7 03:48:56 20° SW 03:51:07 75° SE 03:54:31 10° ENE visible
01 Jul -3.3 03:05:31 40° S 03:06:11 47° SE 03:09:29 10° ENE visible
02 Jul -2.3 02:22:22 27° ESE 02:22:22 27° ESE 02:24:40 10° ENE visible
02 Jul -2.8 03:55:30 12° W 03:58:32 44° NNW 04:01:50 10° NE visible
03 Jul -1.1 01:39:30 13° E 01:39:30 13° E 01:40:02 10° E visible
03 Jul -3.3 03:12:39 29° W 03:14:11 61° NNW 03:17:35 10° NE visible
